sat.trackr.live / text

‹ back to catalog

STARLINK-34290

NORAD 64929 · 2025-157AB

PAYLOAD ACTIVE UNKNOWN

§ Identity

Operator
Country
US
Launch date
2025-07-26
Launch site
AFETR
Launch vehicle
Mass (kg)
RCS (m²)

Purposes: comms

External: N2YO · Heavens-Above · Gunter

§ Orbital elements

Epoch: 2026-09-20T03:17:18.476160Z

Period
93.85 min
Inclination
53.1558°
Eccentricity
0.0001153
Mean motion
15.34402187 rev/d
Perigee alt
461.9 km
Apogee alt
463.5 km
Semi-major
6,840.8 km
B*
4.5313e-4
RAAN
159.7084°
Arg perigee
100.0120°
Mean anomaly
260.1013°
Rev number
6,593

§ Raw data

STARLINK-342901 64929U 25157AB  26263.13701940  .00014965  00000+0  45313-3 0  99972 64929  53.1558 159.7084 0001153 100.0120 260.1013 15.34402187 65938

JSON: /api/v1/satellites/64929 · /tle

For live sub-satellite position, see the globe view (requires WebGL).

§ Visibility from observer

Set your observer location to see the next 7 days of passes ≥ 10°. The values pass through the URL so the page stays shareable.

No JS? Fill the form by hand. The geolocation button needs JavaScript.